DW6513 Weather Reports


time (UTC)temp
F
wind
direction
speed
knots
gust
knots
rain 1hr
in
rain 24hr
in
rain mn
in
humidity
%
barometer
mb
20260904141301 82 123 4.3 11.3 0.00 0.00 0.00 63 1014.6
20260904140301 81 164 1.7 8.7 0.00 0.00 0.00 64 1015.6
20260904135801 81 114 1.7 8.7 0.00 0.00 0.00 65 1015.6
20260904135301 81 257 1.7 8.7 0.00 0.00 0.00 65 1015.6
20260904134301 80 74 1.7 2.6 0.00 0.00 0.00 67 1015.4
20260904133801 80 330 1.7 7.0 0.00 0.00 0.00 67 1015.4
20260904133301 79 99 2.6 7.0 0.00 0.00 0.00 68 1015.4
20260904132301 78 122 0.9 4.3 0.00 0.00 0.00 70 1015.5
20260904131801 78 100 0.9 4.3 0.00 0.00 0.00 71 1015.5
20260904131301 77 145 0.9 2.6 0.00 0.00 0.00 72 1015.5
20260904130302 77 100 1.7 2.6 0.00 0.00 0.00 72 1015.6
20260904125801 76 144 0.9 2.6 0.00 0.00 0.00 73 1015.6
20260904125305 76 122 0.9 0.0 0.00 0.00 0.00 73 1015.6
20260904124801 76 122 0.0 2.6 0.00 0.00 0.00 74 1015.4
20260904124302 76 122 0.9 0.0 0.00 0.00 0.00 74 1015.3
20260904123801 76 108 0.9 2.6 0.00 0.00 0.00 74 1015.3
20260904123301 76 100 0.9 2.6 0.00 0.00 0.00 75 1015.3
20260904122801 75 140 0.0 0.0 0.00 0.00 0.00 76 1015.3
20260904122302 74 122 0.0 0.0 0.00 0.00 0.00 76 1015.3
20260904121801 74 122 0.0 0.0 0.00 0.00 0.00 75 1015.3
20260904121302 74 122 0.9 0.0 0.00 0.00 0.00 75 1015.3
20260904120801 74 100 0.9 2.6 0.00 0.00 0.00 76 1015.3
20260904115801 74 122 0.0 0.0 0.00 0.00 0.00 75 1015.3
20260904115301 74 100 0.0 0.0 0.00 0.00 0.00 74 1015.3
20260904114802 74 123 0.0 0.0 0.00 0.00 0.00 74 1015.2
20260904113802 75 100 0.0 0.0 0.00 0.00 0.00 74 1015.1
20260904113302 74 122 0.0 0.0 0.00 0.00 0.00 74 1015.1
20260904112801 74 284 0.0 0.0 0.00 0.00 0.00 73 1015.0
20260904112305 75 235 0.0 0.0 0.00 0.00 0.00 73 1014.7
20260904111801 75 145 0.0 0.0 0.00 0.00 0.00 73 1014.7
20260904111302 75 122 0.0 0.0 0.00 0.00 0.00 72 1014.7
20260904110801 75 145 0.0 0.0 0.00 0.00 0.00 72 1014.6
20260904110301 75 100 0.0 0.0 0.00 0.00 0.00 72 1014.6
20260904105802 75 145 0.0 0.0 0.00 0.00 0.00 71 1014.6
20260904105305 76 102 0.0 0.0 0.00 0.00 0.00 71 1014.6
20260904104801 76 135 0.9 1.7 0.00 0.00 0.00 71 1014.6
20260904104301 76 122 0.9 4.3 0.00 0.00 0.00 71 1014.6
20260904102801 76 93 0.0 1.7 0.00 0.00 0.00 71 1014.4
20260904102301 76 100 0.0 0.0 0.00 0.00 0.00 71 1014.3
20260904101801 76 100 0.0 0.0 0.00 0.00 0.00 71 1014.3
20260904100802 76 132 0.0 0.0 0.00 0.00 0.00 71 1014.3
20260904100301 76 100 0.9 0.0 0.00 0.00 0.00 71 1014.3
20260904095802 76 129 0.0 2.6 0.00 0.00 0.00 71 1014.3
20260904095305 76 100 0.0 0.0 0.00 0.00 0.00 71 1014.3
20260904094801 76 161 0.0 0.0 0.00 0.00 0.00 70 1014.2
20260904094302 76 145 0.0 0.0 0.00 0.00 0.00 71 1014.2
20260904093801 76 86 0.0 0.0 0.00 0.00 0.00 71 1014.2
20260904093301 76 122 0.0 0.0 0.00 0.00 0.00 70 1014.2
20260904092801 76 114 0.0 0.0 0.00 0.00 0.00 70 1014.0
20260904092301 76 122 0.0 0.0 0.00 0.00 0.00 70 1013.9
20260904091802 76 100 0.0 0.0 0.00 0.00 0.00 70 1013.9
20260904091302 77 168 0.0 0.0 0.00 0.00 0.00 70 1013.9
20260904090802 77 150 0.0 0.0 0.00 0.00 0.00 70 1013.8
20260904090302 77 122 0.0 0.0 0.00 0.00 0.00 69 1013.7
20260904085301 77 100 0.0 0.0 0.00 0.00 0.00 69 1013.7
20260904084801 77 107 0.0 1.7 0.00 0.00 0.00 69 1013.8
20260904084301 77 122 0.9 1.7 0.00 0.00 0.00 69 1013.8
20260904083801 77 245 0.9 2.6 0.00 0.00 0.00 69 1013.8
20260904083301 78 122 0.9 2.6 0.00 0.00 0.00 68 1013.8
20260904082802 78 132 0.0 2.6 0.00 0.00 0.00 68 1013.9
20260904082305 78 100 0.0 0.0 0.00 0.00 0.00 68 1014.0
20260904081302 78 168 0.0 2.6 0.00 0.00 0.00 68 1014.0
20260904080801 78 130 0.0 1.7 0.00 0.00 0.00 67 1013.8
20260904080301 78 78 0.9 0.0 0.00 0.00 0.00 67 1013.7
20260904075802 78 123 0.9 1.7 0.00 0.00 0.00 67 1013.7
20260904075301 78 100 0.9 2.6 0.00 0.00 0.00 67 1013.7
20260904074801 78 121 0.9 2.6 0.00 0.00 0.00 66 1013.8
20260904073802 79 184 0.9 1.7 0.00 0.00 0.00 65 1013.9
20260904073302 79 145 0.9 1.7 0.00 0.00 0.00 65 1013.9
20260904072802 79 131 0.0 1.7 0.00 0.00 0.00 65 1013.7
20260904072301 79 122 0.0 1.7 0.00 0.00 0.00 65 1013.6
20260904071801 79 122 0.0 2.6 0.00 0.00 0.00 65 1013.6
20260904071301 79 100 0.0 2.6 0.00 0.00 0.00 65 1013.6
20260904070801 79 100 0.0 0.0 0.00 0.00 0.00 65 1013.7
20260904070302 79 325 0.9 0.0 0.00 0.00 0.00 64 1013.8
20260904065801 79 142 0.9 1.7 0.00 0.00 0.00 64 1013.8
20260904065301 79 100 0.9 1.7 0.00 0.00 0.00 64 1013.8
20260904064801 80 14 0.9 4.3 0.00 0.00 0.00 64 1013.8
20260904064301 80 100 0.0 2.6 0.00 0.00 0.00 64 1013.8
20260904063801 80 128 0.9 2.6 0.00 0.00 0.00 64 1013.8
20260904063302 80 145 0.9 2.6 0.00 0.00 0.00 64 1013.8
20260904062801 80 114 0.0 1.7 0.00 0.00 0.00 64 1013.7
20260904061301 80 145 0.9 1.7 0.00 0.00 0.00 63 1013.7
20260904060802 80 78 0.9 4.3 0.00 0.00 0.00 63 1013.8
20260904060301 80 258 0.0 2.6 0.00 0.00 0.00 63 1013.8
20260904055801 80 130 0.0 2.6 0.00 0.00 0.00 63 1013.8
20260904055301 80 78 0.9 0.0 0.00 0.00 0.00 62 1013.8
20260904054801 80 317 0.9 1.7 0.00 0.00 0.00 62 1013.9
20260904054302 80 145 0.0 1.7 0.00 0.00 0.00 62 1014.0
20260904053802 81 179 0.9 0.0 0.00 0.00 0.00 61 1014.0
20260904053302 81 78 1.7 2.6 0.00 0.00 0.00 61 1014.0
20260904052301 81 168 1.7 2.6 0.00 0.00 0.00 60 1014.0
20260904051802 81 135 0.9 2.6 0.00 0.00 0.00 60 1014.0
20260904051302 81 100 0.9 0.0 0.00 0.00 0.00 60 1014.0
20260904050817 82 122 0.9 4.3 0.00 0.00 0.00 60 1013.8
20260904050302 82 100 0.9 4.3 0.00 0.00 0.00 60 1013.7
20260904045801 82 115 0.9 2.6 0.00 0.00 0.00 60 1013.7
20260904045306 82 100 1.7 1.7 0.00 0.00 0.00 60 1013.7
20260904044802 82 100 1.7 2.6 0.00 0.00 0.00 59 1013.8
20260904044301 82 122 0.9 2.6 0.00 0.00 0.00 59 1013.9
20260904043801 82 106 0.9 2.6 0.00 0.00 0.00 59 1013.9
20260904043302 82 122 0.9 2.6 0.00 0.00 0.00 58 1013.9
20260904042802 82 110 0.9 2.6 0.00 0.00 0.00 58 1013.8
20260904042305 83 122 0.0 1.7 0.00 0.00 0.00 58 1013.7
20260904041301 83 100 0.0 0.0 0.00 0.00 0.00 58 1013.7
20260904040801 83 100 0.0 1.7 0.00 0.00 0.00 58 1013.9
20260904040301 83 100 0.0 0.0 0.00 0.00 0.00 57 1014.0
20260904035801 83 87 0.0 2.6 0.00 0.00 0.00 57 1014.0
20260904035301 83 100 0.0 0.0 0.00 0.00 0.00 57 1014.0
20260904034802 83 160 0.0 1.7 0.00 0.00 0.00 57 1013.9
20260904034302 83 145 0.0 1.7 0.00 0.00 0.00 57 1013.8
20260904033802 84 100 0.0 2.6 0.00 0.00 0.00 57 1013.8
20260904033302 84 122 0.0 0.0 0.00 0.00 0.00 56 1013.8
20260904032301 84 145 0.0 1.7 0.00 0.00 0.00 57 1013.6
20260904031801 84 280 0.0 1.7 0.00 0.00 0.00 56 1013.6
20260904031301 84 145 0.0 1.7 0.00 0.00 0.00 56 1013.6
20260904030801 84 190 0.0 1.7 0.00 0.00 0.00 56 1013.7
20260904030302 84 235 0.0 1.7 0.00 0.00 0.00 56 1013.8
20260904025802 84 129 0.0 0.0 0.00 0.00 0.00 56 1013.8
20260904025305 84 190 0.0 0.0 0.00 0.00 0.00 56 1013.8
20260904024802 84 220 0.0 0.0 0.00 0.00 0.00 56 1013.5
20260904023801 85 66 0.0 2.6 0.00 0.00 0.00 55 1013.4
20260904023301 85 168 0.0 2.6 0.00 0.00 0.00 55 1013.4
20260904022801 85 84 0.0 2.6 0.00 0.00 0.00 55 1013.5
20260904022305 85 212 0.0 0.0 0.00 0.00 0.00 55 1013.5
20260904021802 85 162 0.9 1.7 0.00 0.00 0.00 55 1013.5
20260904021302 85 145 0.9 4.3 0.00 0.00 0.00 54 1013.5
20260904020802 85 325 0.0 4.3 0.00 0.00 0.00 54 1013.5
20260904015802 86 123 0.9 4.3 0.00 0.00 0.00 52 1013.5
20260904015301 86 145 0.0 4.3 0.00 0.00 0.00 51 1013.5
20260904014802 86 324 0.0 0.0 0.00 0.00 0.00 50 1013.2
20260904014302 87 212 0.9 1.7 0.00 0.00 0.00 50 1013.1
20260904013801 87 112 0.9 1.7 0.00 0.00 0.00 49 1013.1
20260904013302 87 100 0.0 1.7 0.00 0.00 0.00 49 1013.1
20260904012802 87 190 0.0 2.6 0.00 0.00 0.00 49 1013.0
20260904012305 87 190 0.0 1.7 0.00 0.00 0.00 49 1012.9
20260904011302 88 145 0.0 1.7 0.00 0.00 0.00 48 1012.9
20260904010801 88 136 0.0 1.7 0.00 0.00 0.00 48 1012.7
20260904010301 88 78 0.0 1.7 0.00 0.00 0.00 48 1012.6
20260904005802 88 180 0.0 0.0 0.00 0.00 0.00 47 1012.6
20260904005302 88 168 0.0 0.0 0.00 0.00 0.00 47 1012.6
20260904003801 89 156 0.9 1.7 0.00 0.00 0.00 46 1012.7
20260904003301 89 78 0.9 1.7 0.00 0.00 0.00 45 1012.7
20260904002801 90 116 0.9 5.2 0.00 0.00 0.00 44 1012.5
20260904001802 90 180 0.9 4.3 0.00 0.00 0.00 44 1012.4
20260904001302 91 100 0.0 1.7 0.00 0.00 0.00 43 1012.4
20260904000802 91 180 0.0 1.7 0.00 0.00 0.00 43 1012.4
20260904000303 91 145 0.9 2.6 0.00 0.00 0.00 41 1012.4
20260903235801 92 158 0.9 2.6 0.00 0.00 0.00 41 1012.4
20260903235305 92 145 0.9 0.0 0.00 0.00 0.00 40 1012.4
20260903234801 92 85 0.9 1.7 0.00 0.00 0.00 40 1012.5
20260903233802 93 307 0.9 0.0 0.00 0.00 0.00 39 1012.6
20260903232802 94 96 0.9 2.6 0.00 0.00 0.00 36 1012.7
20260903232301 94 100 0.9 2.6 0.00 0.00 0.00 36 1012.8
20260903231801 95 212 0.9 4.3 0.00 0.00 0.00 35 1012.8
20260903231302 95 145 0.9 0.0 0.00 0.00 0.00 33 1012.8
20260903230802 98 265 0.9 6.1 0.00 0.00 0.00 31 1012.7
20260903230301 100 348 1.7 2.6 0.00 0.00 0.00 31 1012.6
20260903225802 100 324 1.7 4.3 0.00 0.00 0.00 31 1012.6
20260903225301 100 145 2.6 6.1 0.00 0.00 0.00 31 1012.6
20260903224801 99 70 1.7 10.4 0.00 0.00 0.00 30 1012.5
20260903224302 101 280 0.9 2.6 0.00 0.00 0.00 29 1012.4
20260903223802 100 145 0.9 4.3 0.00 0.00 0.00 31 1012.4
20260903223302 101 145 0.9 4.3 0.00 0.00 0.00 31 1012.4
20260903222801 101 145 1.7 4.3 0.00 0.00 0.00 29 1012.5
20260903222305 101 212 0.9 4.3 0.00 0.00 0.00 30 1012.6
20260903221801 103 141 0.9 4.3 0.00 0.00 0.00 28 1012.6
20260903221302 102 212 1.7 4.3 0.00 0.00 0.00 28 1012.6
20260903220802 102 114 1.7 7.0 0.00 0.00 0.00 28 1012.5
20260903215802 103 130 1.7 0.0 0.00 0.00 0.00 28 1012.5
20260903213802 103 126 1.7 8.7 0.00 0.00 0.00 27 1012.9
20260903213301 102 78 0.9 8.7 0.00 0.00 0.00 27 1012.9
20260903212801 102 145 0.9 2.6 0.00 0.00 0.00 29 1013.0
20260903211301 103 168 0.9 0.0 0.00 0.00 0.00 29 1013.1
20260903205802 102 134 1.7 4.3 0.00 0.00 0.00 30 1012.9
20260903205301 101 100 1.7 1.7 0.00 0.00 0.00 31 1012.9
20260903204802 100 241 1.7 6.1 0.00 0.00 0.00 31 1013.0
20260903204301 103 145 1.7 6.1 0.00 0.00 0.00 29 1013.0
20260903203802 103 101 1.7 7.0 0.00 0.00 0.00 31 1013.0
20260903203302 102 145 1.7 7.0 0.00 0.00 0.00 31 1013.0
20260903202802 101 131 0.9 4.3 0.00 0.00 0.00 32 1013.1
20260903202301 101 302 0.9 4.3 0.00 0.00 0.00 31 1013.2
20260903201802 102 125 0.0 0.0 0.00 0.00 0.00 34 1013.2
20260903201301 100 78 2.6 0.0 0.00 0.00 0.00 34 1013.2
20260903200802 98 287 4.3 11.3 0.00 0.00 0.00 34 1013.4
20260903200301 98 122 2.6 11.3 0.00 0.00 0.00 33 1013.5
20260903195802 99 108 2.6 5.2 0.00 0.00 0.00 33 1013.5
20260903195306 99 190 4.3 4.3 0.00 0.00 0.00 34 1013.5
20260903194801 99 128 4.3 6.1 0.00 0.00 0.00 34 1014.1
20260903193801 101 303 0.9 7.0 0.00 0.00 0.00 34 1014.5
20260903193302 100 145 0.9 4.3 0.00 0.00 0.00 35 1014.5
20260903192802 98 149 0.9 1.7 0.00 0.00 0.00 37 1014.2
20260903192301 99 212 1.7 1.7 0.00 0.00 0.00 36 1014.1
20260903191802 98 75 1.7 4.3 0.00 0.00 0.00 36 1014.1
20260903191302 97 168 1.7 4.3 0.00 0.00 0.00 37 1014.1
20260903190802 97 167 2.6 5.2 0.00 0.00 0.00 38 1014.3
20260903190301 95 122 4.3 5.2 0.00 0.00 0.00 37 1014.4
20260903185802 95 195 4.3 5.2 0.00 0.00 0.00 36 1014.4
20260903185301 96 145 3.5 12.2 0.00 0.00 0.00 36 1014.4
20260903184801 96 36 2.6 12.2 0.00 0.00 0.00 39 1014.4
20260903184302 96 325 4.3 5.2 0.00 0.00 0.00 40 1014.4
20260903183802 95 104 4.3 12.2 0.00 0.00 0.00 40 1014.4
20260903182803 94 208 4.3 7.8 0.00 0.00 0.00 43 1014.7
20260903182301 91 122 4.3 7.8 0.00 0.00 0.00 42 1014.8
20260903181802 93 125 4.3 4.3 0.00 0.00 0.00 43 1014.8
20260903181302 92 235 3.5 5.2 0.00 0.00 0.00 44 1014.8
20260903180302 91 32 3.5 0.0 0.00 0.00 0.00 46 1014.9
20260903175802 91 325 4.3 12.2 0.00 0.00 0.00 46 1014.9
20260903175305 91 10 4.3 12.2 0.00 0.00 0.00 46 1014.9
20260903174801 90 175 5.2 12.2 0.00 0.00 0.00 46 1015.2
20260903173802 90 149 4.3 8.7 0.00 0.00 0.00 47 1015.3
20260903172801 90 322 5.2 11.3 0.00 0.00 0.00 46 1015.4
20260903171802 90 49 5.2 7.8 0.00 0.00 0.00 47 1015.4
20260903171302 89 302 4.3 6.1 0.00 0.00 0.00 47 1015.4
20260903170802 90 108 4.3 7.0 0.00 0.00 0.00 47 1015.1
20260903170302 89 100 5.2 7.0 0.00 0.00 0.00 48 1014.9
20260903165305 89 100 5.2 7.0 0.00 0.00 0.00 49 1014.9
20260903164802 89 69 6.1 12.2 0.00 0.00 0.00 49 1015.4
20260903164301 89 78 4.3 8.7 0.00 0.00 0.00 49 1015.7
20260903163802 89 117 4.3 8.7 0.00 0.00 0.00 50 1015.7
20260903163302 88 168 4.3 12.2 0.00 0.00 0.00 50 1015.7
20260903162801 88 139 5.2 7.8 0.00 0.00 0.00 51 1015.6
20260903162306 88 145 5.2 8.7 0.00 0.00 0.00 51 1015.5
20260903161802 88 45 4.3 10.4 0.00 0.00 0.00 51 1015.5
20260903161302 87 302 4.3 8.7 0.00 0.00 0.00 51 1015.5
20260903160802 87 73 5.2 11.3 0.00 0.00 0.00 52 1015.6
20260903160301 87 122 5.2 17.4 0.00 0.00 0.00 51 1015.7
20260903155802 86 114 6.1 10.4 0.00 0.00 0.00 53 1015.7
20260903154802 86 100 5.2 11.3 0.00 0.00 0.00 53 1015.7
20260903154302 86 100 4.3 11.3 0.00 0.00 0.00 54 1015.7
20260903153802 86 100 4.3 10.4 0.00 0.00 0.00 57 1015.7
20260903153302 86 100 4.3 6.1 0.00 0.00 0.00 57 1015.7
20260903152802 85 100 2.6 7.0 0.00 0.00 0.00 58 1015.7
20260903152301 85 145 2.6 11.3 0.00 0.00 0.00 59 1015.7
20260903151802 85 55 2.6 11.3 0.00 0.00 0.00 59 1015.7
20260903151302 84 302 4.3 8.7 0.00 0.00 0.00 59 1015.7
20260903150801 84 46 4.3 8.7 0.00 0.00 0.00 60 1015.7
20260903150301 83 100 4.3 7.0 0.00 0.00 0.00 60 1015.7
20260903145802 83 125 2.6 10.4 0.00 0.00 0.00 60 1015.7
20260903144802 83 220 2.6 5.2 0.00 0.00 0.00 60 1015.7
20260903144302 82 145 2.6 5.2 0.00 0.00 0.00 61 1015.7
20260903143802 82 172 1.7 5.2 0.00 0.00 0.00 61 1015.7
20260903143302 82 145 1.7 4.3 0.00 0.00 0.00 62 1015.7
20260903142305 82 145 0.9 4.3 0.00 0.00 0.00 63 1015.6
20260903141802 81 32 0.9 2.6 0.00 0.00 0.00 65 1015.6